[[{"header":{"parameterUnit":"m.s-1","parameterCategory":1,"la1":30.2991,"la2":30.254,"lo1":-89.0895,"lo2":-89.0444,"dy":0.0017,"dx":0.0017,"nx":28,"ny":28,"refTime":"2024-07-28T03:00:00:Z","depth":0,"parameterNumber":2,"parameterNumberName":"U-component_of_WINDS"},"data":[0,0,0,0,0,0,0,0,0,0,0,0,0,0,0,0,0,0,0,0,0,0,0,0,0,0,0,0,0,0,0,0,0,0,0,0,0,0,0,0,0,0,0,0,0,0,0,0,0,0,0,0,0,0,0,0,0,0,1.7896,1.7897,0,1.7989,1.799,1.7992,1.7988,1.7987,1.7986,1.7985,1.8086,1.809,1.8094,0,0,0,0,0,0,0,0,0,0,0,0,0,1.7719,1.7722,1.7896,1.7897,1.7898,1.7989,1.799,1.7992,1.7989,1.7987,1.7985,1.7984,1.8085,1.8089,1.8094,0,0,0,0,0,0,0,0,0,0,0,0,0,1.7803,1.7724,1.7896,1.7908,1.7909,1.7989,1.7991,1.7992,1.7989,1.7987,1.7985,1.7983,1.8083,1.8089,1.8095,1.817,0,0,1.8113,1.8115,0,0,0,0,0,0,0,0,1.7798,1.7809,1.7905,1.7907,1.7909,1.7975,1.7965,1.8052,1.7989,1.7959,1.7984,1.7982,1.8051,1.8059,1.8081,1.8175,1.8179,1.8113,1.8117,1.8119,1.8121,0,0,0,0,0,0,0,1.7792,1.7805,1.7933,1.7906,1.7909,1.791,1.7919,1.7982,1.8015,1.7961,1.7961,1.7972,1.8052,1.8076,1.8084,1.8181,1.8113,1.8118,1.8122,1.8124,1.834,1.8342,0,0,0,0,0,0,1.7783,1.78,1.793,1.7936,1.7847,1.7914,1.7925,1.7956,1.8014,1.8021,1.7974,1.7972,1.8067,1.8077,1.8087,1.8178,1.8119,1.8125,1.8128,1.8337,1.834,1.8342,0,0,0,0,0,0,1.7779,1.7795,1.7926,1.7868,1.7885,1.7919,1.7954,1.7959,1.7983,1.8024,1.803,1.7992,1.8066,1.8079,1.8149,1.8182,1.8127,1.8133,1.8335,1.8338,1.8341,1.8362,0,0,0,0,0,0,1.7774,1.7793,1.7822,1.7869,1.7888,1.7985,1.7956,1.7962,1.7992,1.799,1.8042,1.8049,1.8065,1.814,1.8155,1.8189,1.8137,1.8332,1.8336,1.834,1.8358,1.8365,1.8371,0,0,0,0,0,1.7768,1.7825,1.7823,1.7839,1.7924,1.7987,1.7998,1.8014,1.7995,1.8024,1.805,1.8047,1.8176,1.8147,1.8164,1.82,1.833,1.8335,1.834,1.8355,1.8364,1.8371,0,0,0,0,0,0,1.7783,1.7832,1.783,1.7904,1.7941,1.7986,1.8023,1.8023,1.8068,1.8064,1.8084,1.8096,1.8165,1.819,1.8157,1.8276,1.8251,1.8259,1.8257,1.8265,1.8272,1.8264,1.8142,0,0,0,0,0,1.7795,1.7841,1.7881,1.7942,1.7961,1.7989,1.8017,1.8026,1.8066,1.8082,1.8114,1.8154,1.8204,1.8236,1.8284,1.8362,1.8373,1.8395,1.8402,1.8407,1.8414,1.8456,1.8466,1.8359,1.8359,1.8359,0,0,1.782,1.7852,1.788,1.7946,1.7976,1.8024,1.8002,1.8055,1.8091,1.8091,1.8158,1.8182,1.8229,1.8302,1.8337,1.8325,1.8446,1.8413,1.8417,1.8421,1.8462,1.8472,1.8481,1.8362,1.8361,1.8361,0,0,1.789,1.7919,1.7972,1.8002,1.8047,1.8065,1.8077,1.8123,1.8138,1.8205,1.8206,1.825,1.8335,1.8368,1.8395,1.8476,1.8475,1.8491,1.8526,1.8566,1.8574,1.8582,1.861,1.8619,1.8498,1.8498,1.8499,0,1.7916,1.7986,1.8,1.8052,1.8081,1.8081,1.8135,1.8165,1.8224,1.8244,1.823,1.8335,1.8367,1.8448,1.8467,1.849,1.8505,1.8485,1.8572,1.8579,1.8587,1.8613,1.8624,1.85,1.85,1.85,1.85,0,1.8015,1.8065,1.8103,1.8157,1.819,1.8243,1.8266,1.8298,1.8304,1.8324,1.8392,1.8429,1.8484,1.8504,1.8511,1.8586,1.8577,1.8567,1.8542,1.8598,1.8623,1.8634,1.8502,1.8502,1.8501,1.8501,0,0,1.8098,1.8157,1.8171,1.8195,1.8244,1.8283,1.8336,1.8387,1.8414,1.8455,1.85,1.8571,1.8562,1.8593,1.8604,1.864,1.87,1.8626,1.8627,1.8637,1.8783,1.8789,1.88,1.8699,1.8701,1.8703,1.8778,0,1.8171,1.8263,1.8277,1.8359,1.8404,1.8405,1.8451,1.8486,1.8506,1.8549,1.8571,1.862,1.8605,1.8624,1.8659,1.8685,1.8729,1.868,1.8742,1.8744,1.8729,1.8814,1.8821,1.889,1.8788,1.879,1.8791,0,1.827,1.831,1.8396,1.8437,1.8457,1.8498,1.8545,1.8586,1.8626,1.8638,1.8672,1.8678,1.8734,1.8707,1.8784,1.875,1.8776,1.8793,1.8796,1.8802,1.877,1.8821,1.8912,1.8922,1.8807,1.8806,1.8805,0,1.8319,1.8396,1.8456,1.8477,1.8527,1.8556,1.8579,1.8617,1.8646,1.8689,1.8708,1.8757,1.8784,1.8822,1.8841,1.882,1.8917,1.8892,1.8928,1.8928,1.8948,1.8947,1.9044,1.8967,1.8967,1.8967,1.8966,0,1.84,1.8452,1.8479,1.8516,1.8574,1.859,1.8648,1.867,1.8704,1.8746,1.8751,1.879,1.8814,1.8857,1.8873,1.8934,1.8947,1.8958,1.8961,1.8957,1.8955,1.8974,1.8969,1.8969,1.8969,1.8968,1.8968,0,1.8465,1.8485,1.8551,1.8592,1.8604,1.8645,1.8681,1.8718,1.8737,1.879,1.8803,1.8834,1.8885,1.8908,1.8972,1.8983,1.9051,1.9052,1.9037,1.9038,1.9073,1.9069,1.9185,1.9201,1.9114,1.9115,1.9115,0,1.8514,1.8554,1.8599,1.8626,1.8649,1.8694,1.8723,1.874,1.8771,1.8819,1.885,1.8901,1.8942,1.9024,1.9053,1.9101,1.9103,1.914,1.911,1.9104,1.9102,1.9098,1.9102,1.9145,1.9146,1.9147,1.9147,0,1.8599,1.8607,1.8648,1.8693,1.8727,1.8764,1.88,1.8823,1.8846,1.8881,1.8932,1.8963,1.9027,1.9078,1.9128,1.9152,1.9154,1.9156,1.9167,1.9163,1.9152,1.9157,1.905,1.9154,1.9153,1.9153,1.9152,1.9152,1.8657,1.8691,1.8728,1.8774,1.8802,1.8835,1.8871,1.8894,1.8936,1.8988,1.8996,1.9051,1.909,1.9157,1.9183,1.9226,1.9217,1.9234,1.9237,1.9241,1.9242,1.9145,1.9236,1.9236,1.9236,1.9235,1.9235,0,1.8741,1.8764,1.8806,1.8855,1.8891,1.8887,1.8927,1.8958,1.9005,1.904,1.908,1.9138,1.9187,1.9219,1.9268,1.9296,1.9298,1.9309,1.9306,1.9312,1.9248,1.9233,1.9306,1.9306,1.9306,1.9306,1.9306,1.9306,1.8788,1.8846,1.8858,1.893,1.8954,1.9005,1.9028,1.9059,1.9087,1.9151,1.9191,1.921,1.9245,1.9296,1.934,1.9348,1.9366,1.9377,1.9384,1.9324,1.9316,1.9309,1.9295,1.938,1.9381,1.9444,1.9445,1.9445]},{"header":{"parameterUnit":"m.s-1","parameterCategory":1,"la1":30.2991,"la2":30.254,"lo1":-89.0895,"lo2":-89.0444,"dy":0.0017,"dx":0.0017,"nx":28,"ny":28,"refTime":"2024-07-28T03:00:00:Z","depth":0,"parameterNumber":3,"parameterNumberName":"V-component_of_WINDS"},"data":[0,0,0,0,0,0,0,0,0,0,0,0,0,0,0,0,0,0,0,0,0,0,0,0,0,0,0,0,0,0,0,0,0,0,0,0,0,0,0,0,0,0,0,0,0,0,0,0,0,0,0,0,0,0,0,0,0,0,3.6627,3.6627,0,3.6657,3.6657,3.6657,3.6658,3.6658,3.6658,3.6657,3.6684,3.6685,3.6686,0,0,0,0,0,0,0,0,0,0,0,0,0,3.6564,3.6566,3.6627,3.6627,3.6628,3.6656,3.6657,3.6657,3.6658,3.6658,3.6658,3.6657,3.6684,3.6685,3.6686,0,0,0,0,0,0,0,0,0,0,0,0,0,3.6592,3.6566,3.6627,3.6632,3.6632,3.6656,3.6657,3.6657,3.6658,3.6658,3.6657,3.6657,3.6683,3.6685,3.6686,3.6706,0,0,3.6691,3.6692,0,0,0,0,0,0,0,0,3.6591,3.6595,3.6631,3.6631,3.6632,3.6653,3.6645,3.6674,3.6659,3.6648,3.6657,3.6657,3.6674,3.6676,3.6683,3.6708,3.6709,3.6691,3.6692,3.6693,3.6693,0,0,0,0,0,0,0,3.6589,3.6593,3.6638,3.6631,3.6632,3.663,3.6634,3.665,3.6664,3.6649,3.665,3.6653,3.6674,3.6681,3.6684,3.6709,3.6691,3.6693,3.6694,3.6694,3.6747,3.6748,0,0,0,0,0,0,3.6587,3.6592,3.6637,3.6639,3.661,3.6632,3.6636,3.6647,3.6664,3.6666,3.6654,3.6653,3.6679,3.6682,3.6685,3.6707,3.6693,3.6694,3.6695,3.6747,3.6747,3.6748,0,0,0,0,0,0,3.6585,3.6591,3.6636,3.6616,3.6621,3.6633,3.6646,3.6648,3.6655,3.6667,3.6669,3.6659,3.6679,3.6682,3.67,3.6708,3.6695,3.6697,3.6746,3.6747,3.6748,3.6752,0,0,0,0,0,0,3.6584,3.659,3.66,3.6616,3.6622,3.6654,3.6647,3.6649,3.6658,3.6658,3.6672,3.6674,3.6679,3.6698,3.6702,3.671,3.6698,3.6746,3.6747,3.6748,3.6752,3.6753,3.6754,0,0,0,0,0,3.6581,3.66,3.6601,3.6606,3.6635,3.6654,3.6658,3.6664,3.6659,3.6667,3.6674,3.6674,3.6706,3.67,3.6704,3.6712,3.6745,3.6746,3.6747,3.6751,3.6753,3.6754,0,0,0,0,0,0,3.6585,3.6603,3.6603,3.6628,3.6639,3.6654,3.6665,3.6666,3.6678,3.6677,3.6683,3.6686,3.6703,3.671,3.6702,3.673,3.6725,3.6727,3.6726,3.6728,3.6729,3.6727,3.6699,0,0,0,0,0,3.6588,3.6604,3.6618,3.6639,3.6644,3.6654,3.6662,3.6666,3.6677,3.6682,3.669,3.67,3.6712,3.6721,3.6733,3.6752,3.6754,3.676,3.6761,3.6762,3.6764,3.6771,3.6773,3.6752,3.6752,3.6751,0,0,3.6596,3.6608,3.6617,3.6639,3.6649,3.6662,3.6658,3.6674,3.6683,3.6684,3.6701,3.6707,3.6719,3.6737,3.6745,3.6742,3.677,3.6763,3.6764,3.6765,3.6772,3.6775,3.6776,3.6752,3.6752,3.6752,0,0,3.6617,3.6629,3.6645,3.6654,3.6668,3.6673,3.6677,3.6691,3.6695,3.6713,3.6713,3.6723,3.6745,3.6752,3.6758,3.6777,3.6776,3.6781,3.6788,3.6795,3.6797,3.6799,3.6803,3.6805,3.6782,3.6782,3.6782,0,3.6625,3.6647,3.6654,3.6668,3.6676,3.6678,3.6693,3.6701,3.6717,3.6722,3.6719,3.6744,3.6752,3.677,3.6774,3.678,3.6782,3.6779,3.6797,3.6798,3.68,3.6804,3.6806,3.6783,3.6782,3.6782,3.6782,0,3.6654,3.6669,3.6681,3.6697,3.6706,3.6721,3.6727,3.6735,3.6737,3.6742,3.6757,3.6766,3.6779,3.6783,3.6785,3.68,3.6798,3.6796,3.679,3.6802,3.6806,3.6808,3.6783,3.6783,3.6783,3.6783,0,0,3.6681,3.6697,3.6701,3.6707,3.672,3.6731,3.6744,3.6757,3.6763,3.6773,3.6783,3.6799,3.6796,3.6803,3.6805,3.6812,3.6823,3.6808,3.6809,3.6809,3.6838,3.6839,3.6841,3.6822,3.6823,3.6823,3.6836,0,3.6702,3.6727,3.6731,3.6752,3.6764,3.6763,3.6774,3.6782,3.6786,3.6795,3.6799,3.681,3.6806,3.681,3.6816,3.6821,3.6829,3.682,3.683,3.683,3.6826,3.6844,3.6846,3.6858,3.6838,3.6839,3.6839,0,3.673,3.6741,3.6763,3.6772,3.6777,3.6787,3.6797,3.6806,3.6814,3.6816,3.6822,3.6823,3.6834,3.6827,3.6841,3.6834,3.6838,3.684,3.6841,3.6842,3.6835,3.6844,3.6862,3.6863,3.6842,3.6842,3.6841,0,3.6744,3.6764,3.6779,3.6784,3.6795,3.6802,3.6806,3.6814,3.682,3.6827,3.6831,3.684,3.6844,3.685,3.6852,3.6848,3.6865,3.6859,3.6865,3.6865,3.6869,3.6869,3.6887,3.6873,3.6873,3.6873,3.6873,0,3.6767,3.678,3.6785,3.6794,3.6808,3.681,3.6823,3.6827,3.6833,3.6841,3.6841,3.6848,3.685,3.6857,3.6859,3.6868,3.6871,3.6871,3.6871,3.6871,3.6871,3.6873,3.6872,3.6873,3.6873,3.6873,3.6873,0,3.6785,3.679,3.6805,3.6814,3.6816,3.6825,3.6831,3.6838,3.6841,3.6851,3.6854,3.6858,3.6866,3.6868,3.6878,3.6878,3.6889,3.6889,3.6887,3.6886,3.6892,3.6891,3.6912,3.6914,3.6899,3.6899,3.6899,0,3.6799,3.6809,3.6818,3.6823,3.6828,3.6837,3.6843,3.6844,3.685,3.6858,3.6863,3.6871,3.6878,3.689,3.6893,3.6899,3.6898,3.6905,3.6899,3.6898,3.6897,3.6896,3.6896,3.6906,3.6907,3.6907,3.6907,0,3.6822,3.6823,3.6832,3.684,3.6847,3.6854,3.686,3.6864,3.6866,3.6872,3.688,3.6885,3.6894,3.6901,3.6907,3.691,3.6908,3.6908,3.691,3.6909,3.6907,3.6907,3.6888,3.6908,3.6908,3.6908,3.6908,3.6908,3.6838,3.6845,3.6852,3.686,3.6865,3.687,3.6876,3.6879,3.6886,3.6894,3.6894,3.6902,3.6906,3.6914,3.6917,3.6922,3.692,3.6923,3.6923,3.6923,3.6923,3.6907,3.6923,3.6923,3.6923,3.6923,3.6923,0,3.6859,3.6863,3.6871,3.6879,3.6885,3.6882,3.6888,3.6893,3.69,3.6905,3.691,3.6918,3.6924,3.6926,3.6932,3.6935,3.6934,3.6936,3.6936,3.6936,3.6926,3.6923,3.6937,3.6937,3.6937,3.6937,3.6937,3.6937,3.6871,3.6883,3.6884,3.6896,3.6899,3.6907,3.691,3.6914,3.6917,3.6926,3.6931,3.6932,3.6935,3.694,3.6945,3.6945,3.6946,3.6949,3.6948,3.6939,3.6937,3.6936,3.6933,3.6949,3.6949,3.6958,3.6958,3.6958]}]]